WD6FGE Weather Reports


time (UTC)temp
F
wind
direction
speed
knots
gust
knots
rain 1hr
in
rain 24hr
in
rain mn
in
humidity
%
barometer
mb
20180925230042 88 0 1.7 6.1 0.00 0.00 0.00 9 1014.4
20180925225053 87 238 1.7 6.1 0.00 0.00 0.00 9 1014.4
20180925224021 87 294 1.7 6.1 0.00 0.00 0.00 9 1014.6
20180925223032 87 355 1.7 7.8 0.00 0.00 0.00 9 1014.7
20180925222026 87 277 2.6 8.7 0.00 0.00 0.00 9 1014.8
20180925221006 86 0 2.6 11.3 0.00 0.00 0.00 9 1014.9
20180925215947 85 321 3.5 11.3 0.00 0.00 0.00 10 1015.0
20180925214943 85 15 3.5 7.8 0.00 0.00 0.00 10 1015.1
20180925213917 87 355 2.6 8.7 0.00 0.00 0.00 9 1015.2
20180925212914 86 30 3.5 8.7 0.00 0.00 0.00 10 1015.4
20180925211901 86 250 3.5 8.7 0.00 0.00 0.00 10 1015.5
20180925210844 86 46 1.7 9.6 0.00 0.00 0.00 10 1015.7
20180925205854 85 303 3.5 9.6 0.00 0.00 0.00 11 1015.8
20180925204852 83 344 3.5 8.7 0.00 0.00 0.00 11 1016.1
20180925203910 83 351 1.7 8.7 0.00 0.00 0.00 12 1016.2
20180925202920 84 5 1.7 8.7 0.00 0.00 0.00 12 1016.2
20180925201923 82 337 1.7 8.7 0.00 0.00 0.00 12 1016.4
20180925200924 81 102 1.7 6.1 0.00 0.00 0.00 13 1016.5
20180925195923 81 40 2.6 7.8 0.00 0.00 0.00 12 1016.7
20180925194854 81 77 2.6 8.7 0.00 0.00 0.00 12 1016.8
20180925193917 80 5 3.5 8.7 0.00 0.00 0.00 14 1017.0
20180925192849 79 321 1.7 9.6 0.00 0.00 0.00 15 1017.1
20180925191857 78 248 3.5 9.6 0.00 0.00 0.00 15 1017.4
20180925190830 77 38 1.7 8.7 0.00 0.00 0.00 16 1017.6
20180925185840 76 175 4.3 8.7 0.00 0.00 0.00 17 1017.7
20180925184825 75 306 3.5 8.7 0.00 0.00 0.00 18 1017.9
20180925183758 75 323 2.6 8.7 0.00 0.00 0.00 19 1018.1
20180925182754 73 355 1.7 7.0 0.00 0.00 0.00 19 1018.2
20180925181809 73 324 2.6 6.1 0.00 0.00 0.00 20 1018.3
20180925180745 72 24 1.7 6.1 0.00 0.00 0.00 20 1018.5
20180925175758 71 336 3.5 7.8 0.00 0.00 0.00 21 1018.6
20180925174755 69 49 1.7 7.8 0.00 0.00 0.00 21 1018.7
20180925173819 68 51 1.7 7.8 0.00 0.00 0.00 23 1018.9
20180925172829 67 275 1.7 7.8 0.00 0.00 0.00 25 1019.0
20180925171838 66 20 2.6 7.0 0.00 0.00 0.00 26 1019.0
20180925170824 65 336 1.7 7.0 0.00 0.00 0.00 27 1019.2
20180925165756 64 251 0.9 6.1 0.00 0.00 0.00 29 1019.2
20180925164804 62 305 0.9 4.3 0.00 0.00 0.00 31 1019.3
20180925163733 58 258 0.0 2.6 0.00 0.00 0.00 37 1019.2
20180925162738 55 123 1.7 2.6 0.00 0.00 0.00 41 1019.3
20180925161717 52 140 0.0 1.7 0.00 0.00 0.00 45 1019.4
20180925160727 47 197 0.0 0.0 0.00 0.00 0.00 52 1019.5
20180925155731 43 197 0.0 0.0 0.00 0.00 0.00 57 1019.6
20180925154710 41 197 0.0 0.0 0.00 0.00 0.00 63 1019.5
20180925153721 40 197 0.0 0.0 0.00 0.00 0.00 62 1019.6
20180925152701 38 172 0.0 0.0 0.00 0.00 0.00 63 1019.7
20180925151657 37 172 0.0 0.0 0.00 0.00 0.00 64 1019.7
20180925150707 36 172 0.0 0.0 0.00 0.00 0.00 66 1019.8
20180925145724 35 172 0.0 0.0 0.00 0.00 0.00 69 1019.8
20180925144705 33 218 0.0 0.0 0.00 0.00 0.00 72 1019.8
20180925143631 32 218 0.0 0.0 0.00 0.00 0.00 71 1019.7
20180925142634 32 218 0.0 0.0 0.00 0.00 0.00 71 1019.6
20180925141652 32 218 0.0 0.0 0.00 0.00 0.00 71 1019.4
20180925140713 32 249 0.0 0.0 0.00 0.00 0.00 71 1019.2
20180925135646 32 309 0.0 0.0 0.00 0.00 0.00 69 1019.1
20180925134650 32 309 0.0 0.0 0.00 0.00 0.00 69 1019.0
20180925133711 32 309 0.0 0.0 0.00 0.00 0.00 68 1018.9
20180925132732 33 309 0.0 0.0 0.00 0.00 0.00 67 1018.8
20180925131745 33 309 0.0 0.0 0.00 0.00 0.00 67 1018.7
20180925130741 33 309 0.0 0.0 0.00 0.00 0.00 66 1018.6
20180925125757 33 309 0.0 0.0 0.00 0.00 0.00 67 1018.6
20180925124738 34 309 0.0 0.0 0.00 0.00 0.00 64 1018.4
20180925123706 34 309 0.0 0.0 0.00 0.00 0.00 63 1018.5
20180925122631 34 309 0.0 0.0 0.00 0.00 0.00 63 1018.3
20180925121602 34 309 0.0 0.0 0.00 0.00 0.00 63 1018.3
20180925120619 35 309 0.0 0.0 0.00 0.00 0.00 62 1018.3
20180925115602 35 309 0.0 0.0 0.00 0.00 0.00 61 1018.2
20180925114613 35 309 0.0 0.0 0.00 0.00 0.00 64 1018.3
20180925113600 35 309 0.0 0.0 0.00 0.00 0.00 61 1018.2
20180925112528 35 309 0.0 0.0 0.00 0.00 0.00 59 1018.1
20180925111515 36 309 0.0 0.0 0.00 0.00 0.00 58 1018.1
20180925110530 36 309 0.0 0.9 0.00 0.00 0.00 59 1018.0
20180925105546 36 309 0.0 0.0 0.00 0.00 0.00 58 1018.0
20180925104537 37 309 0.0 0.9 0.00 0.00 0.00 57 1018.0
20180925103520 37 309 0.0 0.0 0.00 0.00 0.00 57 1017.8
20180925102502 37 309 0.0 0.0 0.00 0.00 0.00 56 1017.8
20180925101434 37 309 0.0 0.0 0.00 0.00 0.00 59 1017.8
20180925100445 37 309 0.0 0.0 0.00 0.00 0.00 56 1017.7
20180925095417 38 309 0.0 0.0 0.00 0.00 0.00 54 1017.7
20180925094411 38 309 0.0 0.9 0.00 0.00 0.00 54 1017.7
20180925093423 38 309 0.0 0.0 0.00 0.00 0.00 58 1017.6
20180925092444 38 309 0.0 0.0 0.00 0.00 0.00 56 1017.6
20180925091440 39 309 0.0 0.0 0.00 0.00 0.00 54 1017.5
20180925090410 39 309 0.0 0.0 0.00 0.00 0.00 52 1017.4
20180925085400 40 309 0.0 0.0 0.00 0.00 0.00 52 1017.4
20180925084347 40 161 0.0 0.0 0.00 0.00 0.00 51 1017.3
20180925083354 40 161 0.0 0.0 0.00 0.00 0.00 49 1017.2
20180925082320 41 161 0.0 0.0 0.00 0.00 0.00 49 1017.3
20180925081331 41 161 0.0 0.9 0.00 0.00 0.00 48 1017.2
20180925080311 41 161 0.0 0.0 0.00 0.00 0.00 50 1017.1
20180925075240 41 161 0.0 0.0 0.00 0.00 0.00 48 1017.0
20180925074241 42 161 0.0 0.0 0.00 0.00 0.00 48 1016.9
20180925073241 43 161 0.0 0.0 0.00 0.00 0.00 46 1016.9
20180925072245 43 161 0.0 0.9 0.00 0.00 0.00 47 1016.7
20180925071300 43 160 0.0 0.0 0.00 0.00 0.00 46 1016.5
20180925070307 44 160 0.0 0.0 0.00 0.00 0.00 45 1016.5
20180925065255 45 160 0.0 0.0 0.00 0.00 0.00 43 1016.3
20180925064242 45 160 0.0 0.0 0.00 0.00 0.00 44 1016.2
20180925063223 46 160 0.0 0.0 0.00 0.00 0.00 43 1016.0
20180925062216 46 160 0.0 0.0 0.00 0.00 0.00 43 1016.0
20180925061141 47 160 0.0 0.0 0.00 0.00 0.00 42 1015.9
20180925060113 47 160 0.0 0.0 0.00 0.00 0.00 41 1015.6
20180925055054 48 160 0.0 0.0 0.00 0.00 0.00 40 1015.6
20180925054045 49 160 0.0 0.0 0.00 0.00 0.00 39 1015.5
20180925053008 50 160 0.0 0.0 0.00 0.00 0.00 38 1015.3
20180925052017 52 160 0.0 0.0 0.00 0.00 0.00 35 1015.2
20180925050959 53 160 0.0 0.0 0.00 0.00 0.00 35 1015.2
20180925045949 53 159 0.0 0.0 0.00 0.00 0.00 34 1015.0
20180925045010 54 159 0.0 0.0 0.00 0.00 0.00 35 1015.0
20180925044018 55 229 0.0 0.0 0.00 0.00 0.00 34 1014.8
20180925042959 56 229 0.0 0.0 0.00 0.00 0.00 32 1014.8
20180925041957 57 229 0.0 0.9 0.00 0.00 0.00 31 1014.6
20180925041017 58 157 0.0 0.0 0.00 0.00 0.00 32 1014.5
20180925040020 59 156 0.0 0.9 0.00 0.00 0.00 32 1014.4
20180925035040 59 156 0.0 0.0 0.00 0.00 0.00 31 1014.2
20180925034104 60 112 0.0 5.2 0.00 0.00 0.00 29 1014.0
20180925033109 61 82 0.0 1.7 0.00 0.00 0.00 28 1013.8
20180925032050 62 79 0.0 0.0 0.00 0.00 0.00 27 1013.5
20180925031033 62 79 0.0 0.0 0.00 0.00 0.00 26 1013.3
20180925030032 64 9 0.9 1.7 0.00 0.00 0.00 23 1013.2
20180925025007 68 333 0.0 0.9 0.00 0.00 0.00 18 1013.0
20180925024018 69 330 0.0 0.0 0.00 0.00 0.00 17 1012.8
20180925023002 71 330 0.0 0.0 0.00 0.00 0.00 16 1012.6
20180925022009 73 329 0.0 0.0 0.00 0.00 0.00 15 1012.5
20180925021033 74 329 0.0 4.3 0.00 0.00 0.00 14 1012.4
20180925020026 75 0 0.9 5.2 0.00 0.00 0.00 14 1012.3
20180925015005 76 294 0.9 5.2 0.00 0.00 0.00 14 1012.2
20180925014024 77 289 0.0 3.5 0.00 0.00 0.00 14 1012.2
20180925012958 78 302 0.9 3.5 0.00 0.00 0.00 13 1012.0
20180925011935 79 284 0.0 0.0 0.00 0.00 0.00 12 1012.2
20180925010915 80 327 0.9 1.7 0.00 0.00 0.00 12 1012.2
20180925005921 81 324 1.7 6.1 0.00 0.00 0.00 11 1012.2
20180925004914 82 334 0.9 3.5 0.00 0.00 0.00 11 1012.1
20180925003928 82 312 0.9 5.2 0.00 0.00 0.00 10 1012.2
20180925002854 82 333 0.9 6.1 0.00 0.00 0.00 11 1012.2
20180925001915 82 0 1.7 6.1 0.00 0.00 0.00 10 1012.2
20180925000932 82 323 1.7 5.2 0.00 0.00 0.00 10 1012.2
20180924235943 83 342 1.7 5.2 0.00 0.00 0.00 10 1012.2
20180924234944 83 0 1.7 10.4 0.00 0.00 0.00 10 1012.1
20180924233939 83 355 2.6 10.4 0.00 0.00 0.00 10 1012.2
20180924232943 84 19 3.5 7.0 0.00 0.00 0.00 9 1012.2
20180924231912 84 300 1.7 7.0 0.00 0.00 0.00 9 1012.2
20180924230855 84 336 0.9 7.0 0.00 0.00 0.00 9 1012.3